[[{"header":{"parameterUnit":"m.s-1","parameterCategory":1,"la1":30.2991,"la2":30.254,"lo1":-89.0895,"lo2":-89.0444,"dy":0.0017,"dx":0.0017,"nx":28,"ny":28,"refTime":"2024-05-19T09:00:00:Z","depth":0,"parameterNumber":2,"parameterNumberName":"U-component_of_WINDS"},"data":[0,0,0,0,0,0,0,0,0,0,0,0,0,0,0,0,0,0,0,0,0,0,0,0,0,0,0,0,0,0,0,0,0,0,0,0,0,0,0,0,0,0,0,0,0,0,0,0,0,0,0,0,0,0,0,0,0,0,0.3695,0.3695,0,0.372,0.372,0.372,0.3684,0.3682,0.3681,0.368,0.3709,0.3711,0.3712,0,0,0,0,0,0,0,0,0,0,0,0,0,0.3619,0.3621,0.3695,0.3695,0.3696,0.372,0.372,0.372,0.3684,0.3682,0.3681,0.3679,0.3708,0.371,0.3713,0,0,0,0,0,0,0,0,0,0,0,0,0,0.3649,0.3621,0.3695,0.368,0.3679,0.3719,0.372,0.372,0.3684,0.3682,0.368,0.3678,0.3707,0.371,0.3713,0.377,0,0,0.3722,0.3723,0,0,0,0,0,0,0,0,0.3647,0.3652,0.3682,0.3681,0.368,0.3696,0.3704,0.3737,0.3685,0.3682,0.368,0.3678,0.3706,0.3709,0.3718,0.3771,0.3773,0.3722,0.3724,0.3725,0.3726,0,0,0,0,0,0,0,0.3645,0.365,0.3705,0.3683,0.3681,0.3673,0.3675,0.371,0.3705,0.3682,0.368,0.3683,0.3706,0.3716,0.3719,0.3773,0.3722,0.3725,0.3727,0.3728,0.3873,0.3875,0,0,0,0,0,0,0.3644,0.3649,0.3704,0.3706,0.3658,0.3676,0.3678,0.3693,0.3705,0.3704,0.3685,0.3681,0.3711,0.3715,0.372,0.3787,0.3725,0.3728,0.373,0.3871,0.3874,0.3876,0,0,0,0,0,0,0.3643,0.365,0.3703,0.3677,0.3683,0.3679,0.3696,0.3695,0.3705,0.3706,0.3705,0.3696,0.371,0.3715,0.3757,0.3787,0.3729,0.3732,0.3869,0.3872,0.3875,0.3922,0,0,0,0,0,0,0.3641,0.3649,0.3671,0.3677,0.3684,0.374,0.3698,0.3697,0.3709,0.3705,0.3716,0.3716,0.3709,0.3753,0.376,0.379,0.3734,0.3866,0.387,0.3874,0.3918,0.3926,0.3933,0,0,0,0,0,0.3638,0.3684,0.3672,0.3679,0.371,0.3742,0.3746,0.3735,0.3712,0.3734,0.3734,0.3716,0.3782,0.3758,0.3765,0.3797,0.3864,0.3869,0.3873,0.3914,0.3924,0.3933,0,0,0,0,0,0,0.3683,0.3685,0.3671,0.372,0.3731,0.3735,0.3762,0.3747,0.3765,0.3761,0.3748,0.3751,0.3796,0.38,0.3773,0.3852,0.382,0.3826,0.3848,0.3858,0.3865,0.3864,0.3737,0,0,0,0,0,0.3698,0.3722,0.3723,0.3766,0.3771,0.3766,0.3779,0.377,0.3781,0.3786,0.379,0.3802,0.3826,0.3842,0.3864,0.3917,0.392,0.3943,0.3951,0.3957,0.3963,0.3992,0.4002,0.3891,0.3891,0.3891,0,0,0.373,0.3734,0.375,0.3774,0.3782,0.3808,0.377,0.38,0.3819,0.3791,0.383,0.3833,0.3846,0.3894,0.3916,0.39,0.3994,0.3963,0.3968,0.3971,0.3998,0.4008,0.4018,0.3895,0.3894,0.3893,0,0,0.3802,0.3807,0.3843,0.385,0.3861,0.3857,0.3866,0.3872,0.3873,0.3912,0.3891,0.3914,0.3955,0.3965,0.3975,0.4049,0.4033,0.4056,0.4099,0.4127,0.4135,0.4143,0.417,0.4179,0.4062,0.4062,0.4063,0,0.3841,0.3878,0.3864,0.3894,0.3906,0.3879,0.3916,0.3924,0.3942,0.3951,0.3932,0.3982,0.3989,0.4039,0.4057,0.4066,0.4076,0.4056,0.4135,0.4143,0.415,0.4175,0.4185,0.4065,0.4065,0.4065,0.4064,0,0.3926,0.3952,0.398,0.3996,0.401,0.4044,0.4035,0.4052,0.4041,0.4039,0.4079,0.4085,0.4108,0.4119,0.4109,0.4167,0.4157,0.4137,0.4104,0.4163,0.4187,0.4196,0.4069,0.4068,0.4067,0.4067,0,0,0.4028,0.4034,0.4045,0.4051,0.406,0.4081,0.4113,0.4133,0.4148,0.4161,0.4188,0.4222,0.4203,0.4215,0.4206,0.423,0.4288,0.4207,0.4207,0.4222,0.4353,0.4369,0.438,0.4277,0.4279,0.428,0.4352,0,0.41,0.4154,0.4141,0.4195,0.4219,0.4194,0.4222,0.4231,0.4229,0.425,0.4249,0.4273,0.4246,0.4253,0.4276,0.4277,0.4315,0.4271,0.4303,0.4305,0.4302,0.4392,0.4409,0.4476,0.4361,0.4363,0.4364,0,0.4191,0.4206,0.4262,0.4265,0.4275,0.43,0.4318,0.4337,0.4347,0.4344,0.4357,0.4343,0.4375,0.4341,0.4386,0.4356,0.4368,0.4371,0.4373,0.4376,0.4339,0.4399,0.4498,0.4508,0.4378,0.4377,0.4376,0,0.4261,0.4294,0.4332,0.4338,0.4344,0.4362,0.4365,0.4373,0.4385,0.4401,0.4409,0.4428,0.4439,0.4455,0.4447,0.4423,0.4493,0.4458,0.4493,0.4493,0.451,0.4509,0.4613,0.4516,0.4516,0.4516,0.4516,0,0.4343,0.4378,0.4363,0.4386,0.4425,0.441,0.4449,0.4449,0.4456,0.4479,0.4458,0.4481,0.4468,0.449,0.4484,0.4522,0.4527,0.4527,0.4525,0.4529,0.4529,0.4538,0.4533,0.4519,0.4518,0.4518,0.4517,0,0.4427,0.4418,0.4458,0.4459,0.446,0.4488,0.449,0.4512,0.4508,0.4538,0.4544,0.4539,0.4563,0.4556,0.4583,0.4579,0.4627,0.4619,0.4624,0.4622,0.4657,0.4654,0.477,0.4785,0.4679,0.468,0.468,0,0.4481,0.4507,0.451,0.4524,0.4528,0.455,0.4562,0.4548,0.4562,0.4574,0.4595,0.4617,0.4634,0.4675,0.4674,0.4694,0.4687,0.4726,0.469,0.4693,0.4688,0.4687,0.469,0.4734,0.4735,0.4736,0.4737,0,0.4577,0.457,0.4588,0.4604,0.4619,0.4631,0.4642,0.4654,0.4641,0.4658,0.4681,0.4695,0.4721,0.4744,0.4762,0.4766,0.475,0.4748,0.4757,0.4762,0.4764,0.4764,0.4644,0.4746,0.4745,0.4744,0.4744,0.4744,0.4648,0.4669,0.4674,0.4695,0.4701,0.4711,0.4731,0.4729,0.4748,0.4768,0.4758,0.4786,0.4794,0.4817,0.4824,0.4846,0.4831,0.4844,0.4847,0.4851,0.4856,0.476,0.4849,0.4849,0.4848,0.4848,0.4848,0,0.4742,0.4744,0.4763,0.4777,0.4793,0.4774,0.4784,0.4799,0.4824,0.4832,0.4848,0.4876,0.4897,0.4897,0.4918,0.4935,0.4928,0.4941,0.494,0.4942,0.4868,0.4858,0.4946,0.4946,0.4946,0.4946,0.4946,0.4946,0.4794,0.4829,0.4824,0.4862,0.4864,0.4889,0.4897,0.4906,0.4913,0.4944,0.4961,0.496,0.4965,0.4985,0.5004,0.5004,0.5012,0.5028,0.5025,0.4957,0.4947,0.4938,0.4928,0.503,0.503,0.5097,0.5098,0.5099]},{"header":{"parameterUnit":"m.s-1","parameterCategory":1,"la1":30.2991,"la2":30.254,"lo1":-89.0895,"lo2":-89.0444,"dy":0.0017,"dx":0.0017,"nx":28,"ny":28,"refTime":"2024-05-19T09:00:00:Z","depth":0,"parameterNumber":3,"parameterNumberName":"V-component_of_WINDS"},"data":[0,0,0,0,0,0,0,0,0,0,0,0,0,0,0,0,0,0,0,0,0,0,0,0,0,0,0,0,0,0,0,0,0,0,0,0,0,0,0,0,0,0,0,0,0,0,0,0,0,0,0,0,0,0,0,0,0,0,0.4832,0.4832,0,0.4772,0.4771,0.477,0.4694,0.4693,0.4692,0.469,0.4627,0.4627,0.4626,0,0,0,0,0,0,0,0,0,0,0,0,0,0.4881,0.488,0.4832,0.4832,0.4831,0.4772,0.4771,0.477,0.4694,0.4693,0.4691,0.469,0.4628,0.4627,0.4626,0,0,0,0,0,0,0,0,0,0,0,0,0,0.4844,0.488,0.4832,0.4786,0.4781,0.4772,0.4771,0.477,0.4695,0.4693,0.4691,0.4689,0.4628,0.4627,0.4626,0.4658,0,0,0.4624,0.4623,0,0,0,0,0,0,0,0,0.4846,0.4842,0.4793,0.4789,0.4784,0.4739,0.4765,0.4732,0.4695,0.4727,0.469,0.4688,0.4666,0.4662,0.4654,0.4655,0.4652,0.4624,0.4623,0.4623,0.4623,0,0,0,0,0,0,0,0.4849,0.4844,0.4808,0.4793,0.4787,0.4767,0.476,0.4758,0.4708,0.4724,0.4719,0.4713,0.4663,0.4655,0.4652,0.4651,0.4624,0.4623,0.4622,0.4622,0.4674,0.4675,0,0,0,0,0,0,0.4858,0.4847,0.481,0.4806,0.4811,0.4768,0.476,0.4755,0.4707,0.4698,0.4714,0.4709,0.4658,0.4653,0.465,0.4683,0.4623,0.4622,0.4622,0.4672,0.4674,0.4676,0,0,0,0,0,0,0.486,0.4856,0.4813,0.4825,0.4818,0.4769,0.4764,0.4755,0.4747,0.47,0.469,0.4716,0.4656,0.4651,0.4656,0.468,0.4622,0.4621,0.467,0.4672,0.4675,0.4751,0,0,0,0,0,0,0.4862,0.4857,0.4869,0.4826,0.4818,0.4821,0.4766,0.4755,0.4746,0.4739,0.4699,0.4691,0.4654,0.4658,0.4656,0.4678,0.462,0.4667,0.4671,0.4674,0.4746,0.4756,0.4765,0,0,0,0,0,0.4864,0.4892,0.487,0.4866,0.4832,0.4822,0.4818,0.4776,0.4748,0.476,0.4729,0.4692,0.4678,0.4659,0.4656,0.4678,0.4665,0.467,0.4674,0.4742,0.4754,0.4764,0,0,0,0,0,0,0.4939,0.4886,0.486,0.4876,0.4855,0.481,0.4823,0.479,0.4775,0.4769,0.4717,0.4709,0.472,0.4699,0.468,0.4706,0.4666,0.467,0.4719,0.473,0.4739,0.4744,0.462,0,0,0,0,0,0.4958,0.4955,0.4908,0.4927,0.4917,0.4872,0.4866,0.4836,0.4811,0.4801,0.4771,0.4748,0.4738,0.4733,0.4721,0.4743,0.4732,0.4756,0.4766,0.4773,0.4777,0.4786,0.4796,0.469,0.469,0.469,0,0,0.4996,0.4967,0.4968,0.4942,0.4921,0.4919,0.4865,0.4865,0.4863,0.4801,0.4804,0.4782,0.4752,0.4766,0.477,0.4749,0.4804,0.4779,0.4785,0.4785,0.4792,0.4802,0.4811,0.4693,0.4692,0.4692,0,0,0.5065,0.5042,0.5055,0.5036,0.5005,0.4975,0.4978,0.4938,0.4921,0.4923,0.4877,0.4873,0.4857,0.4838,0.4827,0.4888,0.4853,0.4885,0.4933,0.4943,0.4951,0.4958,0.498,0.4989,0.4889,0.4889,0.4889,0,0.5116,0.5111,0.5066,0.5069,0.5059,0.5003,0.5015,0.4998,0.4966,0.496,0.4936,0.4915,0.4892,0.49,0.4915,0.4907,0.4909,0.489,0.4954,0.4961,0.4967,0.4987,0.4995,0.4893,0.4893,0.4892,0.4892,0,0.5176,0.5173,0.5187,0.5158,0.5149,0.5157,0.5112,0.5108,0.5078,0.505,0.5053,0.5023,0.5004,0.5003,0.4974,0.5007,0.4995,0.4963,0.4922,0.4982,0.5,0.5007,0.4899,0.4898,0.4897,0.4896,0,0,0.5291,0.5236,0.5242,0.5227,0.519,0.5187,0.5191,0.5173,0.5171,0.515,0.5153,0.5141,0.5111,0.5098,0.5066,0.5075,0.5125,0.5042,0.504,0.5058,0.5159,0.5183,0.5193,0.5101,0.5102,0.5103,0.5161,0,0.5353,0.5359,0.5318,0.5334,0.5331,0.5278,0.5282,0.5259,0.5233,0.5226,0.5196,0.5189,0.5151,0.5142,0.5148,0.5118,0.5144,0.5113,0.5103,0.5103,0.5112,0.5202,0.5228,0.5284,0.5168,0.5169,0.517,0,0.5426,0.5409,0.5426,0.5387,0.5384,0.5389,0.5369,0.5363,0.5335,0.5316,0.5301,0.5264,0.5265,0.5226,0.5227,0.5207,0.52,0.5184,0.5185,0.5183,0.5141,0.5202,0.5301,0.531,0.5181,0.518,0.5179,0,0.5508,0.549,0.5498,0.5487,0.5442,0.5446,0.5428,0.5398,0.539,0.5372,0.5366,0.5348,0.5339,0.5326,0.5285,0.526,0.5291,0.5248,0.5274,0.5275,0.5283,0.5283,0.5382,0.5279,0.5278,0.5278,0.5278,0,0.5582,0.5594,0.5534,0.5539,0.5551,0.5503,0.5516,0.5492,0.5466,0.5465,0.5417,0.5417,0.5363,0.5356,0.5324,0.533,0.5326,0.5309,0.5301,0.5314,0.5316,0.5309,0.5304,0.528,0.528,0.528,0.5279,0,0.5676,0.5636,0.5641,0.5598,0.5587,0.5598,0.5561,0.5563,0.5533,0.5532,0.5529,0.5483,0.5473,0.543,0.541,0.5388,0.5404,0.5387,0.5414,0.5408,0.5437,0.5435,0.5535,0.5546,0.5435,0.5436,0.5437,0,0.5725,0.5734,0.5691,0.5687,0.5671,0.5665,0.5656,0.5609,0.5602,0.5571,0.5577,0.5563,0.5549,0.5535,0.5499,0.5483,0.5465,0.5502,0.5463,0.5476,0.5466,0.5466,0.5467,0.551,0.5512,0.5513,0.5514,0,0.5818,0.5798,0.5787,0.577,0.5761,0.5745,0.5726,0.5725,0.5673,0.5667,0.5656,0.5646,0.5625,0.5611,0.5589,0.5569,0.5533,0.5526,0.5531,0.5545,0.556,0.5553,0.5437,0.5524,0.5523,0.5523,0.5522,0.5522,0.5891,0.5896,0.5867,0.5857,0.5838,0.5821,0.5821,0.5792,0.5782,0.5762,0.5734,0.5727,0.5699,0.5665,0.5648,0.5641,0.5621,0.5628,0.563,0.5633,0.5639,0.5561,0.5637,0.5636,0.5636,0.5636,0.5635,0,0.5981,0.596,0.5951,0.5926,0.5918,0.5885,0.5862,0.5858,0.5852,0.5829,0.5816,0.5804,0.579,0.5753,0.5736,0.5738,0.572,0.5735,0.5734,0.573,0.5658,0.5656,0.5749,0.5749,0.5749,0.5749,0.5749,0.5749,0.6027,0.6033,0.601,0.6006,0.5984,0.5977,0.5967,0.5951,0.5933,0.5921,0.591,0.5886,0.5857,0.5837,0.5823,0.5812,0.5808,0.5828,0.5812,0.5746,0.5735,0.5725,0.5722,0.5828,0.5828,0.5884,0.5885,0.5885]}]]